Date String (YYYY-MM-DD hh:mm:ss) UTC,Instrument flags,absolute air pressure of the measurement (hPa),sample flow rate (lpm),inlet stack bypass flow (lpm),air temperature of the measurement (°C),ambient temperature measured by the external sensor (°C),aerosol sample conditioner tube jacket temperature (°C),OPC LED temperature (°C),internal box temperature (°C),relative humidity of the measurement (%),span deviation,mass concentration of particles derived from Lorenz-Mie calculation of OPC scattering (μg/m³),mass concentration of particles derived from Lorenz-Mie calculation of OPC scattering (μg/m³),mass concentration of particles derived from Lorenz-Mie calculation of OPC scattering (μg/m³)
DateTimeUTC,F1_M11,P_M11,Q1_M11,Q2_M11,T1_M11,T2_M11,T3_M11,T4_M11,T5_M11,U1_M11,ZSPAN_M11,X0_M11,X2_M11,X1_M11
2024-01-22 05:00:00,SystemResetWarning,0822.4,5.00,000.00,021.9,020.7,000.0,030.3,023.2,15.6,0003.7,0009.67,0005.63,0005.38
2024-01-22 05:01:00,SystemResetWarning,0822.4,5.00,000.00,021.9,020.7,000.0,030.3,023.2,15.6,0003.8,0009.57,0005.54,0005.30
2024-01-22 05:02:00,SystemResetWarning,0822.4,5.01,000.00,021.9,020.7,000.0,030.3,023.2,15.7,0004.0,0009.41,0005.46,0005.23
2024-01-22 05:03:00,SystemResetWarning,0822.4,5.02,000.00,021.9,020.6,000.0,030.3,023.2,15.7,0003.7,0009.23,0005.39,0005.19
2024-01-22 05:04:00,SystemResetWarning,0822.4,4.99,000.00,021.9,020.6,000.0,030.3,023.2,15.7,0003.5,0009.14,0005.34,0005.15
2024-01-22 05:05:00,SystemResetWarning,0822.4,4.99,000.00,021.9,020.6,000.0,030.3,023.2,15.7,0003.6,0008.35,0005.32,0005.15
2024-01-22 05:06:00,SystemResetWarning,0822.4,5.01,000.00,021.9,020.6,000.0,030.2,023.2,15.8,0003.3,0008.07,0005.33,0005.16
2024-01-22 05:07:00,SystemResetWarning,0822.4,5.01,000.00,021.9,020.6,000.0,030.2,023.2,15.7,0003.3,0008.14,0005.38,0005.20
2024-01-22 05:08:00,SystemResetWarning,0822.4,4.99,000.00,021.9,020.6,000.0,030.2,023.2,15.6,0003.1,0008.25,0005.42,0005.24
2024-01-22 05:09:00,SystemResetWarning,0822.4,4.99,000.00,021.8,020.6,000.0,030.2,023.2,15.5,0002.5,0008.65,0005.37,0005.19
2024-01-22 05:10:00,SystemResetWarning,0822.4,5.00,000.00,021.8,020.6,000.0,030.2,023.2,15.5,0001.8,0008.55,0005.27,0005.10
2024-01-22 05:11:00,SystemResetWarning,0822.4,5.01,000.00,021.8,020.6,000.0,030.2,023.2,15.5,0001.9,0008.51,0005.26,0005.09
2024-01-22 05:12:00,SystemResetWarning,0822.5,5.00,000.00,021.8,020.6,000.0,030.2,023.2,15.6,0002.5,0008.70,0005.29,0005.11
2024-01-22 05:13:00,SystemResetWarning,0822.4,5.00,000.00,021.8,020.6,000.0,030.2,023.2,15.9,0002.7,0008.81,0005.30,0005.13
2024-01-22 05:14:00,SystemResetWarning,0822.4,5.01,000.00,021.8,020.6,000.0,030.2,023.2,15.8,0002.4,0008.77,0005.29,0005.11
2024-01-22 05:15:00,SystemResetWarning,0822.5,5.00,000.00,021.8,020.6,000.0,030.2,023.2,15.8,0002.4,0008.77,0005.27,0005.07
2024-01-22 05:16:00,SystemResetWarning,0822.4,5.00,000.00,021.8,020.6,000.0,030.2,023.1,15.6,0002.4,0008.75,0005.24,0005.02
2024-01-22 05:17:00,SystemResetWarning,0822.4,5.00,000.00,021.8,020.6,000.0,030.2,023.2,15.6,0002.8,0008.70,0005.18,0004.94
2024-01-22 05:18:00,SystemResetWarning,0822.4,4.99,000.00,021.8,020.6,000.0,030.2,023.2,15.6,0003.4,0008.63,0005.09,0004.86
2024-01-22 05:19:00,SystemResetWarning,0822.4,4.99,000.00,021.8,020.6,000.0,030.2,023.2,15.6,0003.8,0008.59,0005.01,0004.77
2024-01-22 05:20:00,SystemResetWarning,0822.4,5.00,000.00,021.8,020.6,000.0,030.2,023.2,15.7,0004.0,0008.31,0004.95,0004.72
2024-01-22 05:21:00,SystemResetWarning,0822.4,5.00,000.00,021.8,020.6,000.0,030.1,023.1,15.6,0004.4,0008.26,0004.94,0004.72
2024-01-22 05:22:00,SystemResetWarning,0822.4,5.00,000.00,021.8,020.6,000.0,030.1,023.1,15.6,0004.5,0008.33,0004.91,0004.69
2024-01-22 05:23:00,SystemResetWarning,0822.4,5.00,000.00,021.8,020.6,000.0,030.1,023.1,15.7,0004.2,0008.49,0004.80,0004.61
2024-01-22 05:24:00,SystemResetWarning,0822.4,5.01,000.00,021.8,020.6,000.0,030.1,023.1,15.7,0004.1,0008.20,0004.70,0004.50
2024-01-22 05:25:00,SystemResetWarning,0822.3,5.01,000.00,021.8,020.6,000.0,030.1,023.1,15.6,0004.0,0008.04,0004.59,0004.40
2024-01-22 05:26:00,SystemResetWarning,0822.4,5.00,000.00,021.8,020.6,000.0,030.1,023.1,15.5,0004.0,0007.95,0004.50,0004.32
2024-01-22 05:27:00,SystemResetWarning,0822.4,4.99,000.00,021.8,020.6,000.0,030.1,023.1,15.5,0004.1,0007.87,0004.43,0004.26
2024-01-22 05:28:00,SystemResetWarning,0822.4,5.00,000.00,021.8,020.6,000.0,030.1,023.1,15.4,0003.9,0007.81,0004.36,0004.19
2024-01-22 05:29:00,SystemResetWarning,0822.3,5.01,000.00,021.7,020.6,000.0,030.1,023.1,15.4,0004.2,0007.91,0004.28,0004.12
2024-01-22 05:30:00,SystemResetWarning,0822.3,5.01,000.00,021.8,020.6,000.0,030.1,023.1,15.3,0003.5,0007.84,0004.24,0004.07
2024-01-22 05:31:00,SystemResetWarning,0822.4,4.99,000.00,021.7,020.6,000.0,030.1,023.1,15.3,0003.2,0007.65,0004.19,0004.03
2024-01-22 05:32:00,SystemResetWarning,0822.4,4.99,000.00,021.7,020.6,000.0,030.1,023.1,15.3,0003.4,0007.47,0004.18,0004.00
2024-01-22 05:33:00,SystemResetWarning,0822.4,5.00,000.00,021.7,020.7,000.0,030.1,023.1,15.3,0003.4,0007.42,0004.16,0003.99
2024-01-22 05:34:00,SystemResetWarning,0822.4,5.01,000.00,021.7,020.7,000.0,030.1,023.1,15.3,0004.0,0006.56,0004.15,0003.96
2024-01-22 05:35:00,SystemResetWarning,0822.4,5.01,000.00,021.7,020.7,000.0,030.1,023.1,15.3,0004.4,0006.46,0004.11,0003.92
2024-01-22 05:36:00,SystemResetWarning,0822.4,5.00,000.00,021.7,020.7,000.0,030.1,023.1,15.3,0004.6,0006.45,0004.09,0003.90
2024-01-22 05:37:00,SystemResetWarning,0822.3,4.99,000.00,021.7,020.7,000.0,030.1,023.2,15.3,0004.7,0006.38,0004.08,0003.88
2024-01-22 05:38:00,SystemResetWarning,0822.4,5.00,000.00,021.7,020.7,000.0,030.1,023.2,15.3,0003.8,0006.34,0004.07,0003.87
2024-01-22 05:39:00,SystemResetWarning,0822.3,5.00,000.00,021.7,020.8,000.0,030.1,023.2,15.3,0004.0,0006.22,0004.06,0003.88
2024-01-22 05:40:00,SystemResetWarning,0822.3,5.01,000.00,021.8,020.8,000.0,030.1,023.1,15.3,0001.3,0005.88,0004.06,0003.90
2024-01-22 05:41:00,SystemResetWarning,0822.3,5.01,000.00,021.8,020.8,000.0,030.1,023.2,15.3,0004.7,0005.62,0004.03,0003.88
2024-01-22 05:42:00,SystemResetWarning,0822.3,4.99,000.00,021.8,020.8,000.0,030.1,023.2,15.3,0004.7,0005.54,0003.99,0003.85
2024-01-22 05:43:00,SystemResetWarning,0822.3,4.99,000.00,021.8,020.8,000.0,030.1,023.2,15.3,0002.7,0005.53,0003.97,0003.84
2024-01-22 05:44:00,SystemResetWarning,0822.2,5.00,000.00,021.8,020.8,000.0,030.1,023.2,15.3,0001.6,0005.44,0003.93,0003.80
2024-01-22 05:45:00,SystemResetWarning,0822.2,5.01,000.00,021.8,020.8,000.0,030.1,023.1,15.3,0004.7,0005.50,0003.91,0003.78
2024-01-22 05:46:00,SystemResetWarning,0822.2,5.01,000.00,021.8,020.8,000.0,030.1,023.1,15.4,0004.1,0005.69,0003.92,0003.79
2024-01-22 05:47:00,SystemResetWarning,0822.2,5.00,000.00,021.8,020.8,000.0,030.1,023.1,15.3,0003.8,0005.81,0003.96,0003.81
2024-01-22 05:48:00,SystemResetWarning,0822.2,4.99,000.00,021.8,020.8,000.0,030.1,023.1,15.3,0000.8,0005.96,0003.99,0003.82
2024-01-22 05:49:00,SystemResetWarning,0822.2,4.99,000.00,021.8,020.8,000.0,030.1,023.2,15.4,0000.0,0006.12,0004.01,0003.84
2024-01-22 05:50:00,SystemResetWarning,0822.3,4.99,000.00,021.8,020.8,000.0,030.1,023.1,15.4,0000.0,0006.43,0004.02,0003.85
2024-01-22 05:51:00,SystemResetWarning,0822.2,5.00,000.00,021.8,020.8,000.0,030.1,023.1,15.5,0002.1,0006.67,0004.05,0003.87
2024-01-22 05:52:00,SystemResetWarning,0822.2,5.00,000.00,021.7,020.7,000.0,030.1,023.1,15.4,0003.6,0006.74,0004.07,0003.89
2024-01-22 05:53:00,SystemResetWarning,0822.2,5.01,000.00,021.7,020.7,000.0,030.1,023.1,15.5,0004.9,0006.87,0004.11,0003.93
2024-01-22 05:54:00,SystemResetWarning,0822.2,5.01,000.00,021.7,020.7,000.0,030.1,023.1,15.5,0004.8,0006.87,0004.13,0003.95
2024-01-22 05:55:00,SystemResetWarning,0822.2,5.00,000.00,021.7,020.7,000.0,030.1,023.1,15.5,0004.8,0007.19,0004.16,0003.98
2024-01-22 05:56:00,SystemResetWarning,0822.2,5.00,000.00,021.7,020.7,000.0,030.1,023.1,15.5,0004.8,0007.29,0004.19,0004.01
2024-01-22 05:57:00,SystemResetWarning,0822.2,5.00,000.00,021.7,020.7,000.0,030.1,023.1,15.5,0005.0,0007.20,0004.23,0004.05
2024-01-22 05:58:00,SystemResetWarning,0822.2,5.00,000.00,021.7,020.7,000.0,030.1,023.1,15.5,0005.1,0007.35,0004.30,0004.13
2024-01-22 05:59:00,SystemResetWarning,0822.2,5.00,000.00,021.7,020.6,000.0,030.1,023.1,15.5,0004.6,0007.39,0004.35,0004.21
